Location: Bachas
(43.2439°N, 0.9375°E)
Time: 17:48:49
(UTC+00:00)

COSMO-SKYMED 1 - Pass Details

Date: 18 February 2020
Orbit: 621 x 623 km, 97.9° (Epoch: 01 April)

Event Time Altitude Azimuth Distance (km) Brightness Sun altitude
Rises 05:53:27 0° 193° (SSW) 2,890 5.9 -11.1°
Reaches altitude 10° 05:55:53 10° 205° (SSW) 1,989 5.0 -10.6°
Maximum altitude 05:59:36 28° 264° (W) 1,180 3.4 -10.0°
Drops below altitude 10° 06:03:22 10° 324° (NW) 2,003 4.8 -9.3°
Sets 06:05:50 0° 336° (NNW) 2,915 5.7 -8.8°
